Flag for Spain Weather past 2 weeks in Valladolid, Spain

Now
68 °F

Sunny.


Feels Like: 68 °F
Forecast: 54 / 85 °F
Wind: 13 mph from East

Location: Valladolid / Villanubla

Current Time: Jul 29, 2014 at 10:21:07 PM

Latest Report: Jul 29, 2014 at 9:30 PM


Visibility: 10 mi

Pressure: 30.09 "Hg

Humidity: 46%

Dew point: 46 °F

Location of ValladolidLocation

Historic Weather in Valladolid — Graph

°F

Valladolid temperature yesterday

Maximum temperature yesterday: 82 °F (at 4:30 PM)
Minimum temperature yesterday: 61 °F (at 7:00 AM)
Average temperature yesterday: 73 °F

Past Weeks' High & Low Weather Summary

 TemperatureHumidityPressure
High95 °F (Jul 16, 4:30 PM)100% (Jul 19, 2:30 PM)30.27 "Hg (Jul 19, 2:30 PM)
Low50 °F (Jul 21, 7:30 AM)10% (Jul 17, 2:30 PM)29.86 "Hg (Jul 24, 7:00 PM)
Average75 °F44%30.05 "Hg
* Reported Jul 14 9:00 PM — Jul 29 9:00 PM, Valladolid, Weather by CustomWeather, © 2014

Note: Actual official high and low records may vary slightly from our data, if they occured in-between our weather recording intervals... More about our weather records

Advertising

Valladolid weather history for previous 24 hours

 ConditionsComfort  
Time TempWeatherWind HumidityBarometerVisibility
9:00 PM
Jul 29
70 °FSunny.12 mph43%30.09 "Hg10 mi
8:30 PM70 °FPassing clouds.14 mph43%30.09 "HgN/A
8:00 PM72 °FPassing clouds.15 mph41%30.09 "HgN/A
7:30 PM73 °FPassing clouds.13 mph33%30.07 "HgN/A
7:00 PM73 °FPassing clouds.14 mph33%30.07 "HgN/A
6:30 PM73 °FPassing clouds.14 mph33%30.07 "HgN/A
6:00 PM73 °FPassing clouds.14 mph33%30.07 "HgN/A
5:30 PM73 °FPassing clouds.13 mph33%30.07 "HgN/A
5:00 PM73 °FPassing clouds.16 mph36%30.09 "HgN/A
4:30 PM73 °FPassing clouds.14 mph33%30.09 "HgN/A
4:00 PM73 °FPassing clouds.16 mph38%30.09 "HgN/A
3:30 PM73 °FPassing clouds.14 mph38%30.09 "HgN/A
3:00 PM72 °FPassing clouds.16 mph41%30.12 "HgN/A
2:30 PM70 °FPassing clouds.17 mph43%30.12 "HgN/A
2:00 PM70 °FPassing clouds.18 mph46%30.12 "HgN/A
1:30 PM70 °FPassing clouds.18 mph43%30.12 "HgN/A
1:00 PM68 °FPassing clouds.17 mph46%30.12 "HgN/A
12:30 PM68 °FPassing clouds.17 mph49%30.12 "HgN/A
12:00 PM68 °FPassing clouds.15 mph49%30.12 "HgN/A
11:30 AM66 °FPassing clouds.16 mph52%30.12 "HgN/A
11:00 AM63 °FPassing clouds.16 mph59%30.12 "HgN/A
10:30 AM63 °FSunny.17 mph59%30.12 "Hg10 mi
10:00 AM59 °FSunny.14 mph68%30.12 "Hg10 mi
9:30 AM59 °FPassing clouds.9 mph68%30.12 "HgN/A
9:00 AM57 °FPassing clouds.6 mph72%30.12 "HgN/A
8:30 AM55 °FPassing clouds.7 mph77%30.12 "HgN/A
8:00 AM54 °FPassing clouds.5 mph82%30.12 "HgN/A
7:30 AM52 °FClear.6 mph88%30.09 "Hg10 mi
7:00 AM52 °FClear.7 mph88%30.09 "Hg10 mi
Weather by CustomWeather, © 2014

See weather overviewHow to use our weather pages